Location: Burbank
(38.7788°N, 114.0429°W)
Time: 01:51:21
(UTC+00:00)

Tiros 1 despin weight - Pass Details

Date: 14 May 2026
Orbit: 554 x 591 km, 48.2° (Epoch: 6 June)

Event Time Altitude Azimuth Distance (km) Brightness Sun altitude
Rises 20:20:58 0° 286° (WNW) 2,727 ? 67.4°
Reaches altitude 10° 20:24:06 10° 261° (W) 1,831 ? 67.1°
Maximum altitude 20:26:21 14° 228° (SW) 1,571 ? 66.9°
Drops below altitude 10° 20:28:37 10° 195° (SSW) 1,830 ? 66.6°
Sets 20:31:44 0° 171° (S) 2,727 ? 66.2°
